Location: Be?chatów
(51.3665°N, 19.3745°E)
Time: 07:30:16
(UTC+00:00)

CENTAUR R/B - Pass Details

Date: 19 May 2025
Orbit: 645 x 1537 km, 63.4° (Epoch: 16 June)

Event Time Altitude Azimuth Distance (km) Brightness Sun altitude
Rises 19:32:16 0° 297° (WNW) 3,775 7.2 -7.8°
Reaches altitude 10° 19:34:58 10° 307° (NW) 2,955 6.6 -8.1°
Maximum altitude 19:41:31 35° 11° (NNE) 1,919 4.4 -8.8°
Drops below altitude 10° 19:49:17 10° 75° (ENE) 3,523 5.2 -9.6°
Sets 19:52:48 0° 84° (E) 4,589 5.7 -9.9°
